OBJECT AH, 63241

Orbit data source: Space-Track

You're viewing an uncataloged RSO

Recently launched and/or uncataloged RSOs may have evolving metadata. Metadata may include the following, but is not limited to: Owner, Manufacturer, Bus, Motor, and Mission.

OBJECT AH, 63241 is a satellite in SSO that was launched on Sat, 15 Mar 2025 UTC via an FALCON 9 launch vehicle from the Air Force Western Test Range (AFWTR). Unknown objects in Earth's orbit typically refer to objects detected orbiting the Earth but have not yet been identified or cataloged. These objects could be anything from previously untracked satellites, spent rocket stages, debris from satellite collisions, or even natural meteoroids temporarily captured by Earth's gravity.

Loading next visibility...
Identifier
63241, 2025-052AH
Orbit
SSO
Country
Flag of TBDTBD
Related business
None
Manufacturer
Unknown
Mission
Operational Commercial Technology
Bus & Motor
Unknown
Mass
Unknown
Launch date (UTC)
2025-03-15 (1 year ago)
Launch vehicle
FALCON 9
Launch site
Air Force Western Test Range (AFWTR)
Object type
Unknown
Shape & HBR
Box, 0.2 m
Radar Cross Section
0.035 m², Medium (>0.1 m² and < 1m²)

Expand to show TLE details & history
Last TLE update: 10 hours ago

TLE from 10 hours ago
0 OBJECT AH
1 63241U 25052AH  26221.70837043  .00006975  00000-0  25251-3 0  9990
2 63241  97.3774 114.6675 0005819 348.0837  12.0264 15.28703510 78115
Epoch: 2026-08-09T17:00Z
TLE epoch observation values (Epoch: 2026-08-09T17:00:03.205Z)
Latitude
-0.00003°
Longitude
-98.54733°
Altitude
478.886 km
Speed
7.628 km/s
True Right ascension
07h 38m 40s
True Declination
0° 00' 00"
Sunlit
Object was in daylight at epoch
Visualization orbit readout
Latitude
Unknown
Longitude
Unknown
Altitude
Unknown
Speed
Unknown
Apparent Right ascension
Unknown
Apparent Declination
Unknown
Sunlit
N/A
Visualization observer readout
Local Sidereal Time
16:48:10
Azimuth
Unknown
Elevation
Unknown
Doppler factor
Unknown
Orbital elements
Apogee altitude
480.629 km
Perigee altitude
472.651 km
Semi-major axis
6,854.777 km
Eccentricity
0.00058
Inclination
97.3774°
RAAN
114.6675°
Arg. of periapsis
348.0837°
True anomaly
12.0403°
Mean anomaly
12.0264°
Eccentric anomaly
12.03335°
Mean motion
3.82431 °/min
Orbital period
94.13 mins
BSTAR
0.00025251
Loading maneuver chart data...
Computing Atmospheric mass density...
Loading historical data...
Loading historical data...
Loading historical data...
Loading historical data...
Loading historical data...
Loading historical data...
Loading historical data...

Documentation

Showing up to 5 results
|